TimeEDT,TemperatureF,Dew PointF,Humidity,Sea Level PressureIn,VisibilityMPH,Wind Direction,Wind SpeedMPH,Gust SpeedMPH,PrecipitationIn,Events,Conditions,WindDirDegrees,DateUTC
12:58 AM,73.0,71.1,93,30.13,10.0,SSE,5.8,-,N/A,,Unknown,150,2013-07-03 04:58:00
1:58 AM,73.0,71.1,93,30.12,10.0,SE,3.5,-,N/A,,Unknown,130,2013-07-03 05:58:00
2:58 AM,73.0,71.1,93,30.11,10.0,Calm,Calm,-,N/A,,Unknown,0,2013-07-03 06:58:00
3:58 AM,73.0,72.0,96,30.10,10.0,SSE,3.5,-,N/A,,Unknown,150,2013-07-03 07:58:00
4:58 AM,73.0,72.0,96,30.10,10.0,ESE,4.6,-,N/A,,Unknown,120,2013-07-03 08:58:00
5:58 AM,73.0,72.0,96,30.11,10.0,SSE,4.6,-,N/A,,Unknown,150,2013-07-03 09:58:00
6:58 AM,73.0,72.0,96,30.12,5.0,SE,3.5,-,N/A,,Scattered Clouds,130,2013-07-03 10:58:00
7:58 AM,77.0,75.0,94,30.14,10.0,SSE,5.8,-,N/A,,Unknown,150,2013-07-03 11:58:00
8:57 AM,80.1,75.9,87,30.16,5.0,SE,6.9,-,N/A,,Scattered Clouds,140,2013-07-03 12:57:00
9:58 AM,84.0,75.9,76,30.15,5.0,SSE,17.3,-,N/A,,Haze,150,2013-07-03 13:58:00
10:58 AM,84.0,75.9,76,30.16,5.0,SE,13.8,-,N/A,,Haze,140,2013-07-03 14:58:00
11:58 AM,86.0,75.9,72,30.15,10.0,SE,16.1,21.9,N/A,,Scattered Clouds,140,2013-07-03 15:58:00
12:58 PM,84.9,75.9,74,30.15,10.0,SSE,18.4,23.0,N/A,,Scattered Clouds,150,2013-07-03 16:58:00
1:11 PM,86.0,75.2,70,30.14,7.0,SE,12.7,24.2,N/A,Thunderstorm,Scattered Clouds,140,2013-07-03 17:11:00
1:26 PM,86.0,75.2,70,30.14,7.0,SSE,15.0,23.0,N/A,,Scattered Clouds,150,2013-07-03 17:26:00
1:58 PM,84.9,75.9,74,30.13,7.0,SE,17.3,23.0,N/A,,Scattered Clouds,140,2013-07-03 17:58:00
2:58 PM,84.0,75.0,74,30.13,10.0,SSE,12.7,21.9,N/A,,Scattered Clouds,150,2013-07-03 18:58:00
3:58 PM,82.0,75.0,79,30.12,10.0,SE,13.8,-,N/A,,Scattered Clouds,130,2013-07-03 19:58:00
4:58 PM,80.1,75.0,85,30.11,10.0,SE,15.0,-,N/A,,Overcast,130,2013-07-03 20:58:00
5:58 PM,80.1,75.0,85,30.10,10.0,SE,15.0,-,N/A,,Unknown,130,2013-07-03 21:58:00
6:58 PM,80.1,73.9,81,30.12,10.0,SSE,12.7,-,N/A,,Clear,150,2013-07-03 22:58:00
7:58 PM,79.0,73.9,84,30.13,10.0,SSE,10.4,-,N/A,,Clear,150,2013-07-03 23:58:00
8:58 PM,77.0,73.0,88,30.14,10.0,SSE,11.5,-,N/A,,Unknown,150,2013-07-04 00:58:00
9:58 PM,75.9,73.0,91,30.15,10.0,SSE,9.2,-,N/A,,Unknown,150,2013-07-04 01:58:00
10:58 PM,75.9,72.0,87,30.17,10.0,SE,11.5,-,N/A,,Unknown,140,2013-07-04 02:58:00
11:58 PM,75.0,72.0,90,30.17,10.0,SSE,10.4,-,N/A,,Unknown,150,2013-07-04 03:58:00